period_start,C,m1,H,J0,J1,J2,J3,J4,J5,JA,JB,JC,JD,JJ,JK,JN,#
2017-11-29 00:01:48,0.01,1.27,0.00,5.12,8.25,11.62,15.12,50.99,1025.90,2101.99,3050.00,2874.18,3227.00,600.01,640.14,52.90,0000 0000 0000 0000 000000
2017-11-29 00:06:50,0.00,1.27,0.00,5.08,8.22,11.65,15.18,51.08,1025.91,2101.99,3049.99,2874.05,3227.00,600.22,640.32,52.95,0000 0000 0000 0000 000000
2017-11-29 00:11:51,0.00,1.27,0.00,5.06,8.19,11.59,15.02,51.02,1025.90,2101.99,3049.99,2874.02,3226.98,600.13,640.38,53.00,0000 0000 0000 0000 000000
2017-11-29 00:16:52,0.01,1.27,0.00,5.05,8.15,11.56,15.11,51.03,1025.90,2102.10,3049.99,2874.02,3226.98,600.11,640.34,53.06,0000 0000 0000 0000 000000
2017-11-29 00:21:54,0.02,1.27,0.00,5.02,8.11,11.49,15.06,50.92,1025.90,2102.26,3049.99,2874.00,3226.93,600.01,640.37,53.11,0000 0000 0000 0000 000000
2017-11-29 00:26:55,0.04,1.27,0.00,4.99,8.08,11.50,15.08,51.01,1025.90,2102.64,3049.99,2874.00,3226.90,600.02,640.41,53.16,0000 0000 0000 0000 000000
2017-11-29 00:31:57,0.02,1.27,0.00,4.97,8.05,11.48,15.11,50.96,1025.90,2102.92,3049.90,2874.00,3226.79,599.82,640.41,53.21,0000 0000 0000 0000 000000
2017-11-29 00:36:58,0.01,1.28,0.00,4.92,8.01,11.45,15.04,51.04,1025.90,2102.98,3049.83,2874.00,3226.67,599.85,640.67,53.26,0000 0000 0000 0000 000000
2017-11-29 00:41:59,0.01,1.28,0.00,4.91,7.98,11.42,15.04,50.98,1025.90,2102.99,3049.45,2873.99,3226.36,599.90,640.50,53.31,0000 0000 0000 0000 000000
2017-11-29 00:47:01,0.00,1.28,0.00,4.88,7.95,11.38,15.09,50.87,1025.90,2103.02,3049.55,2873.99,3226.30,600.14,640.86,53.36,0000 0000 0000 0000 000000
2017-11-29 00:52:02,0.01,1.28,0.00,4.83,7.92,11.35,15.07,50.88,1025.91,2103.06,3049.43,2873.99,3226.13,600.18,641.00,53.41,0000 0000 0000 0000 000000
2017-11-29 00:57:04,0.01,1.28,0.00,4.81,7.89,11.29,15.14,50.92,1025.92,2103.14,3049.12,2873.99,3226.06,600.13,641.04,53.46,0000 0000 0000 0000 000000
2017-11-29 01:02:05,0.03,1.28,0.00,4.78,7.85,11.24,15.03,50.86,1025.93,2103.50,3049.37,2873.99,3226.02,599.96,640.89,53.51,0000 0000 0000 0000 000000
2017-11-29 01:07:06,0.03,1.28,0.00,4.77,7.82,11.26,15.13,50.94,1025.98,2103.77,3049.10,2873.98,3226.01,599.84,640.74,53.56,0000 0000 0000 0000 000000
2017-11-29 01:12:08,0.01,1.28,0.00,4.73,7.79,11.19,15.07,50.94,1026.00,2103.96,3049.00,2873.97,3226.01,599.92,641.01,53.61,0000 0000 0000 0000 000000
2017-11-29 01:17:09,0.00,1.28,0.00,4.68,7.76,11.18,15.11,50.85,1026.00,2103.99,3049.00,2873.96,3226.01,600.11,641.31,53.66,0000 0000 0000 0000 000000
2017-11-29 01:22:10,0.00,1.28,0.00,4.65,7.73,11.21,14.98,50.97,1026.03,2103.99,3048.93,2873.88,3226.00,599.91,641.29,53.71,0000 0000 0000 0000 000000
2017-11-29 01:27:11,0.00,1.28,0.00,4.61,7.70,11.13,15.10,50.94,1026.13,2104.01,3048.90,2873.85,3226.00,600.00,641.43,53.76,0000 0000 0000 0000 000000
2017-11-29 01:32:13,0.00,1.28,0.00,4.60,7.66,11.11,15.10,50.90,1026.11,2104.01,3048.96,2873.78,3225.98,599.77,641.28,53.81,0000 0000 0000 0000 000000
2017-11-29 01:37:14,-0.00,1.28,0.00,4.56,7.63,11.09,15.09,50.85,1026.35,2104.02,3048.97,2873.81,3225.93,600.19,641.88,53.86,0000 0000 0000 0000 000000
2017-11-29 01:42:16,0.01,1.28,0.00,4.52,7.60,11.07,15.15,50.81,1026.38,2104.09,3048.89,2873.91,3225.96,600.23,642.06,53.91,0000 0000 0000 0000 000000
2017-11-29 01:47:17,0.04,1.28,0.00,4.51,7.56,11.03,15.19,50.88,1026.38,2104.18,3048.23,2873.55,3225.63,599.78,641.56,53.97,0000 0000 0000 0000 000000
2017-11-29 01:52:18,0.08,1.29,0.00,4.49,7.53,10.97,15.00,50.80,1026.41,2104.76,3047.85,2873.06,3225.16,599.85,641.67,54.02,0000 0000 0000 0000 000000
2017-11-29 01:57:20,0.02,1.29,0.00,4.44,7.50,10.98,15.07,50.88,1026.39,2104.95,3047.15,2873.00,3225.03,599.95,641.93,54.07,0000 0000 0000 0000 000000
2017-11-29 02:02:21,0.00,1.29,0.00,4.41,7.47,10.94,15.10,50.78,1026.40,2104.99,3047.09,2873.00,3225.01,599.83,641.98,54.12,0000 0000 0000 0000 000000
2017-11-29 02:07:22,0.00,1.29,0.00,4.40,7.44,10.91,15.16,50.92,1026.48,2104.99,3046.97,2873.00,3225.00,600.27,642.45,54.17,0000 0000 0000 0000 000000
2017-11-29 02:12:24,0.01,1.29,0.00,4.38,7.40,10.87,15.10,50.88,1026.65,2105.02,3046.51,2872.99,3225.00,600.10,642.37,54.22,0000 0000 0000 0000 000000
2017-11-29 02:17:25,0.02,1.29,0.00,4.34,7.38,10.85,15.09,50.77,1026.86,2105.24,3046.42,2872.96,3225.00,599.87,642.47,54.27,0000 0000 0000 0000 000000
2017-11-29 02:22:27,0.05,1.29,0.00,4.31,7.35,10.86,15.12,50.88,1026.87,2105.77,3046.24,2872.96,3224.99,600.21,642.78,54.32,0000 0000 0000 0000 000000
2017-11-29 02:27:28,0.03,1.30,0.00,4.28,7.32,10.80,15.08,50.85,1026.87,2105.97,3046.03,2872.76,3224.90,600.11,642.64,54.37,0000 0000 0000 0000 000000
2017-11-29 02:32:29,-0.00,1.30,0.00,4.26,7.30,10.76,15.17,50.96,1026.87,2105.98,3046.23,2872.59,3224.73,600.03,642.73,54.42,0000 0000 0000 0000 000000
2017-11-29 02:37:31,-0.02,1.30,0.00,4.24,7.26,10.74,15.08,50.87,1026.87,2105.98,3046.88,2872.88,3224.73,599.70,642.50,54.47,0000 0000 0000 0000 000000
2017-11-29 02:42:32,0.00,1.30,0.00,4.20,7.24,10.71,15.22,50.88,1026.86,2105.99,3046.99,2872.94,3224.56,600.23,643.12,54.52,0000 0000 0000 0000 000000
2017-11-29 02:47:33,0.00,1.30,0.00,4.17,7.20,10.70,15.13,51.04,1026.87,2105.99,3046.99,2872.98,3224.54,600.25,643.13,54.57,0000 0000 0000 0000 000000
2017-11-29 02:52:34,0.01,1.30,0.00,4.13,7.17,10.58,15.17,51.10,1026.87,2105.99,3046.98,2872.97,3224.33,600.07,643.13,54.62,0000 0000 0000 0000 000000
2017-11-29 02:57:36,0.00,1.30,0.00,4.09,7.14,10.61,15.14,51.17,1026.87,2105.99,3046.98,2872.95,3224.09,600.03,643.22,54.67,0000 0000 0000 0000 000000
2017-11-29 03:02:37,0.00,1.30,0.00,4.05,7.10,10.60,15.19,51.06,1026.87,2105.99,3046.99,2872.98,3224.03,600.37,643.46,54.72,0000 0000 0000 0000 000000
2017-11-29 03:07:38,0.01,1.30,0.00,4.04,7.07,10.50,15.15,51.05,1026.87,2106.03,3046.60,2872.94,3224.02,600.31,643.40,54.77,0000 0000 0000 0000 000000
2017-11-29 03:12:39,0.00,1.30,0.00,4.01,7.04,10.55,15.10,50.96,1026.87,2106.06,3046.16,2872.87,3224.01,599.82,643.05,54.83,0000 0000 0000 0000 000000
2017-11-29 03:17:41,-0.01,1.30,0.00,3.97,7.01,10.46,15.19,51.00,1026.87,2106.11,3046.72,2872.97,3224.01,599.97,643.25,54.88,0000 0000 0000 0000 000000
2017-11-29 03:22:42,0.03,1.30,0.00,3.95,6.98,10.39,15.14,51.02,1026.87,2106.30,3046.33,2872.93,3224.00,600.15,643.56,54.93,0000 0000 0000 0000 000000
2017-11-29 03:27:43,0.05,1.30,0.00,3.90,6.94,10.38,15.16,51.13,1026.87,2106.51,3045.89,2872.42,3223.96,599.84,643.38,54.98,0000 0000 0000 0000 000000
2017-11-29 03:32:45,0.05,1.30,0.00,3.88,6.90,10.35,15.14,51.01,1026.87,2106.80,3045.28,2872.03,3223.42,599.91,643.51,55.03,0000 0000 0000 0000 000000
2017-11-29 03:37:46,0.02,1.30,0.00,3.87,6.87,10.38,15.09,51.08,1026.87,2106.97,3044.65,2872.00,3223.03,600.26,643.94,55.08,0000 0000 0000 0000 000000
2017-11-29 03:42:47,0.01,1.31,0.00,3.82,6.84,10.30,15.09,50.95,1026.87,2106.98,3044.02,2871.93,3222.97,599.81,643.65,55.13,0000 0000 0000 0000 000000
2017-11-29 03:47:49,0.03,1.31,0.00,3.79,6.80,10.27,15.21,51.02,1026.87,2106.98,3043.96,2871.41,3222.35,600.26,644.09,55.18,0000 0000 0000 0000 000000
2017-11-29 03:52:50,0.03,1.31,0.00,3.75,6.77,10.20,15.12,50.98,1026.90,2106.99,3043.05,2871.02,3222.01,599.88,643.70,55.23,0000 0000 0000 0000 000000
2017-11-29 03:57:52,0.02,1.31,0.00,3.74,6.73,10.26,15.10,50.97,1026.99,2107.00,3042.08,2870.90,3221.80,600.13,644.16,55.28,0000 0000 0000 0000 000000
2017-11-29 04:02:53,0.05,1.31,0.00,3.72,6.70,10.16,15.17,51.07,1027.06,2107.15,3041.44,2870.33,3221.24,599.98,644.02,55.33,0000 0000 0000 0000 000000
2017-11-29 04:07:54,0.05,1.32,0.00,3.68,6.67,10.15,15.20,51.13,1027.18,2107.49,3040.92,2870.01,3221.01,600.14,644.47,55.38,0000 0000 0000 0000 000000
2017-11-29 04:12:55,0.03,1.32,0.00,3.63,6.63,10.15,15.22,51.05,1027.19,2107.92,3040.17,2869.99,3220.97,600.11,644.37,55.43,0000 0000 0000 0000 000000
2017-11-29 04:17:57,0.01,1.32,0.00,3.60,6.60,10.08,15.29,51.04,1027.21,2107.96,3040.00,2869.92,3220.65,600.10,644.67,55.48,0000 0000 0000 0000 000000
2017-11-29 04:22:58,0.00,1.32,0.00,3.57,6.57,10.03,15.21,50.90,1027.33,2107.98,3040.00,2869.94,3220.13,600.13,644.74,55.53,0000 0000 0000 0000 000000
2017-11-29 04:28:00,0.01,1.32,0.00,3.53,6.53,10.05,15.20,50.94,1027.36,2107.99,3039.97,2869.67,3220.02,600.17,644.90,55.58,0000 0000 0000 0000 000000
2017-11-29 04:33:01,0.02,1.32,0.00,3.49,6.50,10.02,15.22,51.02,1027.36,2107.99,3039.55,2869.32,3220.00,599.75,644.57,55.63,0000 0000 0000 0000 000000
2017-11-29 04:38:02,0.01,1.32,0.00,3.46,6.47,9.94,15.17,50.88,1027.36,2107.99,3039.00,2869.06,3219.98,599.90,644.78,55.68,0000 0000 0000 0000 000000
2017-11-29 04:43:04,0.02,1.32,0.00,3.43,6.43,9.92,15.19,50.94,1027.36,2108.02,3038.40,2869.00,3219.93,599.85,644.72,55.74,0000 0000 0000 0000 000000
2017-11-29 04:48:05,0.01,1.32,0.00,3.39,6.40,9.92,15.23,50.99,1027.36,2108.05,3038.04,2869.00,3219.62,599.88,644.86,55.79,0000 0000 0000 0000 000000
2017-11-29 04:53:07,0.04,1.32,0.00,3.37,6.37,9.86,15.21,51.02,1027.35,2108.19,3037.48,2868.96,3219.11,600.23,645.41,55.84,0000 0000 0000 0000 000000
2017-11-29 04:58:08,0.07,1.33,0.00,3.32,6.33,9.82,15.20,51.00,1027.34,2108.80,3036.97,2868.58,3219.00,599.73,644.90,55.89,0000 0000 0000 0000 000000
2017-11-29 05:03:10,0.04,1.33,0.00,3.31,6.30,9.84,15.09,51.06,1027.34,2108.96,3036.20,2868.07,3218.99,599.90,645.10,55.94,0000 0000 0000 0000 000000
2017-11-29 05:08:11,0.00,1.33,0.00,3.26,6.26,9.74,15.24,51.02,1027.36,2108.99,3036.00,2868.01,3218.86,600.10,645.43,55.99,0000 0000 0000 0000 000000
2017-11-29 05:13:13,0.01,1.33,0.00,3.32,6.23,9.74,15.12,50.90,1027.36,2108.99,3035.99,2868.00,3218.35,600.24,645.32,56.04,0000 0000 0000 0000 000000
2017-11-29 05:18:14,0.00,1.33,0.00,3.53,6.20,9.77,15.04,50.91,1027.36,2109.01,3035.99,2868.00,3218.18,599.72,644.42,56.09,0000 0000 0000 0000 000000
2017-11-29 05:23:16,0.00,1.33,0.00,3.70,6.19,9.79,15.13,50.83,1027.36,2109.01,3035.94,2868.00,3218.02,599.78,643.98,56.14,0000 0000 0000 0000 000000
2017-11-29 05:28:17,0.01,1.33,0.00,3.81,6.19,9.46,15.16,50.83,1027.36,2109.01,3035.72,2867.95,3218.00,600.12,644.33,56.19,0000 0000 0000 0000 000000
2017-11-29 05:33:19,0.04,1.33,0.00,4.01,6.19,9.45,15.18,50.95,1027.38,2109.00,3035.05,2867.42,3217.67,600.44,644.08,56.24,0000 0000 0000 0000 000000
2017-11-29 05:38:20,0.01,1.34,0.00,4.24,6.20,9.56,15.05,50.84,1027.36,2109.00,3034.86,2867.01,3217.06,600.30,643.35,56.29,0000 0000 0000 0000 000000
2017-11-29 05:43:22,0.01,1.34,0.00,4.52,6.24,9.60,15.02,50.83,1027.38,2109.00,3034.07,2866.92,3216.97,600.05,642.62,56.34,0000 0000 0000 0000 000000
2017-11-29 05:48:23,0.05,1.34,0.00,4.80,6.28,9.59,14.96,50.67,1027.45,2109.00,3033.40,2866.15,3216.36,599.99,641.85,56.39,0000 0000 0000 0000 000000
2017-11-29 05:53:24,0.02,1.34,0.00,5.03,6.34,9.60,14.91,50.72,1027.65,2108.99,3032.64,2865.87,3215.87,599.54,640.95,56.44,0000 0000 0000 0000 000000
2017-11-29 05:58:25,0.03,1.34,0.00,5.23,6.41,9.66,15.03,50.63,1027.83,2108.94,3032.02,2865.09,3215.08,600.40,641.48,56.49,0000 0000 0000 0000 000000
2017-11-29 06:03:27,-0.05,1.34,0.00,5.49,6.49,9.78,14.90,50.52,1027.85,2108.32,3031.89,2864.93,3214.57,600.03,640.58,56.55,0000 0000 0000 0000 000000
2017-11-29 06:08:28,0.03,1.34,0.00,5.75,6.58,9.90,14.95,50.40,1027.85,2108.02,3031.15,2864.18,3213.94,600.15,640.08,56.60,0000 0000 0000 0000 000000
2017-11-29 06:13:29,0.03,1.34,0.00,5.80,6.68,10.06,14.93,50.46,1028.06,2107.98,3030.65,2863.80,3213.15,599.79,639.79,56.65,0000 0000 0000 0000 000000
2017-11-29 06:18:31,-0.01,1.34,0.00,5.90,6.78,10.25,14.95,50.51,1028.27,2107.51,3029.93,2863.04,3212.40,600.00,639.87,56.70,0000 0000 0000 0000 000000
2017-11-29 06:23:32,0.02,1.34,0.00,6.04,6.88,10.39,14.97,50.46,1028.28,2107.04,3029.03,2862.35,3211.64,600.13,639.48,56.75,0000 0000 0000 0000 000000
2017-11-29 06:28:33,0.04,1.35,0.00,6.17,7.00,10.54,14.89,50.41,1028.33,2106.96,3028.20,2861.71,3210.83,599.88,639.23,56.80,0000 0000 0000 0000 000000
2017-11-29 06:33:35,-0.03,1.35,0.00,6.30,7.11,10.70,14.95,50.47,1028.34,2106.29,3027.35,2860.93,3209.91,600.16,639.12,56.85,0000 0000 0000 0000 000000
2017-11-29 06:38:36,0.04,1.35,0.00,6.42,7.23,10.83,14.98,50.52,1028.37,2106.02,3026.42,2860.08,3208.99,600.06,638.73,56.90,0000 0000 0000 0000 000000
2017-11-29 06:43:37,0.05,1.35,0.00,6.52,7.35,10.98,14.85,50.52,1028.48,2105.94,3025.28,2859.25,3208.06,600.03,638.51,56.95,0000 0000 0000 0000 000000
2017-11-29 06:48:38,-0.01,1.35,0.00,6.64,7.47,11.08,14.93,50.48,1028.69,2105.22,3024.32,2858.33,3207.11,600.03,638.46,57.00,0000 0000 0000 0000 000000
2017-11-29 06:53:40,0.04,1.35,0.00,6.78,7.59,11.21,14.82,50.45,1028.82,2104.98,3023.76,2857.69,3206.19,599.77,637.95,57.05,0000 0000 0000 0000 000000
2017-11-29 06:58:41,-0.00,1.35,0.00,6.91,7.72,11.33,14.87,50.50,1028.82,2104.51,3022.66,2856.83,3205.22,599.90,637.74,57.10,0000 0000 0000 0000 000000
2017-11-29 07:03:42,0.03,1.35,0.00,7.00,7.84,11.49,14.92,50.39,1028.83,2104.02,3021.59,2855.97,3204.26,599.50,637.26,57.15,0000 0000 0000 0000 000000
2017-11-29 07:08:44,0.04,1.35,0.00,7.11,7.97,11.60,14.89,50.45,1028.84,2103.90,3020.72,2855.09,3203.24,600.19,637.73,57.20,0000 0000 0000 0000 000000
2017-11-29 07:13:45,-0.02,1.35,0.00,7.21,8.09,11.74,14.88,50.36,1028.86,2103.12,3019.95,2854.34,3202.40,599.77,636.94,57.25,0000 0000 0000 0000 000000
2017-11-29 07:18:46,0.04,1.35,0.00,7.30,8.22,11.86,14.86,50.33,1028.83,2102.93,3019.10,2853.60,3201.53,599.84,636.96,57.30,0000 0000 0000 0000 000000
2017-11-29 07:23:47,-0.02,1.36,0.00,7.40,8.34,11.96,14.79,50.32,1028.95,2102.19,3018.08,2852.74,3200.44,599.74,636.60,57.35,0000 0000 0000 0000 000000
2017-11-29 07:28:48,0.07,1.36,0.00,7.50,8.47,12.08,14.89,50.34,1029.16,2102.00,3016.66,2851.71,3199.34,600.24,636.96,57.40,0000 0000 0000 0000 000000
2017-11-29 07:33:50,0.03,1.36,0.00,7.60,8.59,12.19,14.80,50.40,1029.28,2101.84,3015.50,2850.79,3198.41,599.90,636.47,57.46,0000 0000 0000 0000 000000
2017-11-29 07:38:51,-0.01,1.36,0.00,7.71,8.71,12.32,14.88,50.13,1029.31,2101.09,3014.51,2849.87,3197.40,600.33,636.58,57.51,0000 0000 0000 0000 000000
2017-11-29 07:43:52,0.03,1.36,0.00,7.79,8.84,12.42,14.82,50.32,1029.31,2100.81,3013.58,2848.93,3196.31,599.74,635.92,57.56,0000 0000 0000 0000 000000
2017-11-29 07:48:54,0.01,1.36,0.00,7.90,8.95,12.54,14.89,50.25,1029.33,2100.07,3012.43,2848.01,3195.11,600.05,635.97,57.61,0000 0000 0000 0000 000000
2017-11-29 07:53:55,0.05,1.37,0.00,8.00,9.07,12.65,14.98,50.22,1029.32,2099.92,3011.27,2847.05,3194.07,600.35,636.06,57.66,0000 0000 0000 0000 000000
2017-11-29 07:58:57,-0.01,1.37,0.00,8.09,9.19,12.75,14.82,50.13,1029.38,2099.18,3010.13,2846.09,3193.03,599.74,635.20,57.71,0000 0000 0000 0000 000000
2017-11-29 08:03:58,0.06,1.37,0.00,8.16,9.30,12.85,14.83,50.14,1029.41,2098.98,3008.92,2845.13,3191.94,599.99,635.35,57.76,0000 0000 0000 0000 000000
2017-11-29 08:09:00,-0.01,1.37,0.00,8.25,9.42,12.98,14.83,50.13,1029.41,2098.40,3007.82,2844.23,3190.87,600.11,635.29,57.81,0000 0000 0000 0000 000000
2017-11-29 08:14:01,0.05,1.37,0.00,8.35,9.53,13.08,14.81,50.05,1029.45,2098.01,3006.77,2843.38,3189.84,599.80,634.82,57.86,0000 0000 0000 0000 000000
2017-11-29 08:19:02,0.06,1.37,0.00,8.44,9.65,13.16,14.62,50.08,1029.77,2097.89,3005.42,2842.29,3188.78,599.72,634.65,57.91,0000 0000 0000 0000 000000
2017-11-29 08:24:03,-0.01,1.37,0.00,8.54,9.76,13.27,14.82,50.13,1029.80,2097.22,3004.25,2841.38,3187.83,599.99,634.78,57.96,0000 0000 0000 0000 000000
2017-11-29 08:29:05,0.06,1.37,0.00,8.62,9.88,13.39,14.80,50.27,1029.80,2097.00,3002.97,2840.49,3186.80,599.92,634.44,58.01,0000 0000 0000 0000 000000
2017-11-29 08:34:06,0.06,1.38,0.00,8.70,9.99,13.49,14.83,50.32,1029.81,2096.93,3001.75,2839.58,3185.79,600.13,634.50,58.06,0000 0000 0000 0000 000000
2017-11-29 08:39:07,0.11,1.38,0.00,8.77,10.10,13.60,14.81,50.19,1029.97,2096.26,2998.61,2837.63,3183.68,599.72,634.19,58.11,0000 0000 0000 0000 000000
2017-11-29 08:44:09,0.52,1.40,0.00,8.86,10.22,13.72,14.84,50.10,1030.14,2096.00,2988.53,2832.58,3178.01,600.05,634.23,58.16,0000 0000 0000 0000 000000
2017-11-29 08:49:10,0.08,1.42,0.00,8.95,10.33,13.81,14.75,50.03,1030.15,2095.59,2982.38,2829.13,3174.11,599.79,633.91,58.21,0000 0000 0000 0000 000000
2017-11-29 08:54:11,0.03,1.42,0.00,9.04,10.44,13.89,14.85,50.10,1030.24,2095.01,2981.57,2828.29,3172.99,599.95,633.89,58.26,0000 0000 0000 0000 000000
2017-11-29 08:59:13,0.03,1.42,0.00,9.12,10.54,14.01,14.76,50.12,1030.22,2094.75,2980.54,2827.41,3171.98,599.97,633.63,58.32,0000 0000 0000 0000 000000
2017-11-29 09:04:14,0.01,1.42,0.00,9.20,10.64,14.12,14.78,50.06,1030.25,2094.06,2979.38,2826.54,3171.00,599.92,633.42,58.37,0000 0000 0000 0000 000000
2017-11-29 09:09:15,0.05,1.42,0.00,9.27,10.75,14.19,14.72,49.99,1030.29,2093.98,2978.42,2825.78,3170.07,599.63,633.04,58.42,0000 0000 0000 0000 000000
2017-11-29 09:14:17,-0.03,1.42,0.00,9.35,10.85,14.28,14.78,50.07,1030.29,2093.37,2977.75,2825.02,3169.17,599.80,633.16,58.47,0000 0000 0000 0000 000000
2017-11-29 09:19:18,0.04,1.42,0.00,9.41,10.95,14.38,14.89,50.12,1030.29,2093.00,2976.93,2824.30,3168.42,600.48,633.41,58.52,0000 0000 0000 0000 000000
2017-11-29 09:24:19,0.03,1.42,0.00,9.50,11.05,14.47,14.88,50.16,1030.34,2092.80,2976.04,2823.50,3167.54,600.47,633.42,58.57,0000 0000 0000 0000 000000
2017-11-29 09:29:21,-0.02,1.42,0.00,9.58,11.15,14.57,14.82,50.02,1030.72,2092.09,2975.17,2822.81,3166.67,599.93,632.94,58.62,0000 0000 0000 0000 000000
2017-11-29 09:34:22,0.04,1.42,0.00,9.67,11.25,14.67,14.78,50.08,1030.78,2091.99,2974.39,2822.04,3165.87,599.88,632.67,58.67,0000 0000 0000 0000 000000
2017-11-29 09:39:24,-0.02,1.43,0.00,9.75,11.34,14.72,14.74,50.02,1030.78,2091.52,2973.85,2821.38,3165.07,599.68,632.32,58.72,0000 0000 0000 0000 000000
2017-11-29 09:44:26,0.01,1.42,0.00,9.82,11.44,14.84,14.80,50.02,1030.78,2091.04,2973.05,2820.89,3164.33,600.10,632.61,58.77,0000 0000 0000 0000 000000
2017-11-29 09:49:27,0.05,1.43,0.00,9.90,11.53,14.92,14.88,50.06,1030.79,2091.00,2972.13,2820.09,3163.64,600.25,632.56,58.82,0000 0000 0000 0000 000000
2017-11-29 09:54:28,0.03,1.43,0.00,9.99,11.63,15.00,14.76,49.98,1030.78,2090.82,2971.18,2819.40,3162.87,600.19,632.25,58.87,0000 0000 0000 0000 000000
2017-11-29 09:59:30,-0.04,1.43,0.00,10.04,11.72,15.09,14.78,49.95,1030.79,2090.14,2970.72,2818.88,3162.06,600.07,632.06,58.92,0000 0000 0000 0000 000000
2017-11-29 10:04:31,0.04,1.43,0.00,10.12,11.82,15.16,14.76,49.92,1030.81,2089.97,2970.04,2818.09,3161.21,599.77,631.61,58.97,0000 0000 0000 0000 000000
2017-11-29 10:09:33,-0.04,1.43,0.00,10.20,11.91,15.27,14.69,49.90,1030.82,2089.25,2969.78,2817.61,3160.51,599.87,631.57,59.02,0000 0000 0000 0000 000000
2017-11-29 10:14:34,0.02,1.43,0.00,10.27,12.00,15.36,14.71,49.90,1030.82,2089.00,2969.04,2816.99,3159.89,600.06,631.57,59.07,0000 0000 0000 0000 000000
2017-11-29 10:19:35,0.03,1.43,0.00,10.34,12.09,15.45,14.75,49.83,1030.92,2088.83,2968.31,2816.24,3159.06,599.98,631.40,59.12,0000 0000 0000 0000 000000
2017-11-29 10:24:37,-0.02,1.43,0.00,10.42,12.17,15.58,14.79,49.88,1031.13,2088.15,2967.52,2815.77,3158.26,599.95,631.39,59.17,0000 0000 0000 0000 000000
2017-11-29 10:29:38,0.04,1.43,0.00,10.48,12.25,15.64,14.73,49.87,1031.24,2088.00,2966.67,2815.06,3157.57,599.73,631.08,59.23,0000 0000 0000 0000 000000
2017-11-29 10:34:39,0.04,1.43,0.00,10.54,12.34,15.72,14.71,49.84,1031.21,2087.88,2965.82,2814.29,3156.79,599.91,631.05,59.28,0000 0000 0000 0000 000000
2017-11-29 10:39:40,-0.02,1.43,0.00,10.61,12.42,15.80,14.79,49.82,1031.25,2087.16,2964.82,2813.63,3155.93,599.97,631.02,59.33,0000 0000 0000 0000 000000
2017-11-29 10:44:42,0.04,1.43,0.00,10.68,12.51,15.89,14.75,49.75,1031.26,2087.00,2963.90,2812.89,3155.07,600.09,631.02,59.38,0000 0000 0000 0000 000000
2017-11-29 10:49:43,0.05,1.44,0.00,10.77,12.59,15.95,14.78,49.67,1031.28,2086.98,2963.04,2812.09,3154.25,600.03,630.69,59.43,0000 0000 0000 0000 000000
2017-11-29 10:54:45,-0.02,1.44,0.00,10.83,12.68,16.06,14.71,49.64,1031.28,2086.35,2962.17,2811.45,3153.44,599.97,630.50,59.48,0000 0000 0000 0000 000000
2017-11-29 10:59:46,0.04,1.44,0.00,10.88,12.76,16.15,14.72,49.69,1031.31,2086.01,2961.23,2810.75,3152.55,599.69,630.12,59.53,0000 0000 0000 0000 000000
2017-11-29 11:04:47,0.04,1.44,0.00,10.96,12.84,16.20,14.75,49.71,1031.45,2085.96,2960.43,2809.99,3151.68,599.95,630.33,59.58,0000 0000 0000 0000 000000
2017-11-29 11:09:48,-0.03,1.44,0.00,11.04,12.92,16.29,14.71,49.71,1031.33,2085.27,2959.66,2809.19,3150.91,600.17,630.25,59.63,0000 0000 0000 0000 000000
2017-11-29 11:14:49,0.04,1.44,0.00,11.11,13.01,16.39,14.76,49.69,1031.48,2085.00,2958.74,2808.51,3150.07,600.25,630.29,59.68,0000 0000 0000 0000 000000
2017-11-29 11:19:51,0.03,1.44,0.00,11.17,13.09,16.48,14.77,49.77,1031.68,2084.98,2957.91,2807.98,3149.33,600.09,630.14,59.73,0000 0000 0000 0000 000000
2017-11-29 11:24:52,0.01,1.44,0.00,11.24,13.17,16.56,14.80,49.79,1031.74,2084.63,2957.06,2807.16,3148.59,600.20,630.14,59.78,0000 0000 0000 0000 000000
2017-11-29 11:29:53,0.01,1.44,0.00,11.32,13.25,16.61,14.66,49.58,1031.75,2084.07,2956.18,2806.58,3147.92,599.67,629.50,59.83,0000 0000 0000 0000 000000
2017-11-29 11:34:54,0.04,1.45,0.00,11.39,13.33,16.69,14.69,49.45,1031.75,2084.00,2955.20,2805.90,3147.07,599.73,629.31,59.88,0000 0000 0000 0000 000000
2017-11-29 11:39:55,0.05,1.45,0.00,11.47,13.41,16.77,14.63,49.48,1031.76,2083.98,2954.37,2805.07,3146.25,600.04,629.46,59.93,0000 0000 0000 0000 000000
2017-11-29 11:44:56,-0.03,1.45,0.00,11.53,13.49,16.87,14.74,49.45,1031.77,2083.42,2953.96,2804.50,3145.52,600.23,629.43,59.98,0000 0000 0000 0000 000000
2017-11-29 11:49:57,0.01,1.45,0.00,11.59,13.57,16.91,14.71,49.50,1031.76,2083.01,2953.16,2804.00,3144.99,599.98,629.19,60.03,0000 0000 0000 0000 000000
2017-11-29 11:54:59,0.04,1.45,0.00,11.64,13.65,17.01,14.74,49.47,1031.76,2082.97,2952.67,2803.38,3144.19,600.19,629.23,60.08,0000 0000 0000 0000 000000
2017-11-29 12:00:00,-0.02,1.06,0.00,11.71,13.74,17.08,13.19,43.85,1031.76,2083.05,3131.23,2902.77,3278.50,538.58,564.12,0.01,0000 0000 0000 0000 000002
2017-11-29 12:05:02,-0.04,0.00,0.00,11.77,13.82,17.18,14.62,47.76,1031.77,2083.97,3620.69,3176.10,3649.13,599.78,628.54,0.02,0000 0000 0000 0000 000000
2017-11-29 12:10:03,-0.03,0.00,0.00,11.84,13.89,17.25,14.65,47.85,1031.77,2083.57,3618.79,3175.17,3648.27,600.04,628.92,0.07,0000 0000 0000 0000 000000
2017-11-29 12:15:04,-0.03,0.00,0.00,11.91,13.97,17.35,14.72,47.90,1031.93,2083.08,3617.53,3174.45,3647.34,600.27,628.83,0.12,0000 0000 0000 0000 000000
2017-11-29 12:20:05,-0.01,0.00,0.00,11.97,14.04,17.42,14.69,47.83,1032.22,2083.00,3616.53,3173.83,3646.61,600.07,628.71,0.17,0000 0000 0000 0000 000000
2017-11-29 12:25:07,0.01,0.00,0.00,12.03,14.12,17.50,14.56,47.59,1032.22,2082.87,3615.41,3173.04,3645.69,599.77,628.09,0.22,0000 0000 0000 0000 000000
2017-11-29 12:30:08,-0.01,0.00,0.00,12.09,14.20,17.58,14.63,47.61,1032.19,2082.19,3614.32,3172.23,3644.79,599.92,628.25,0.27,0000 0000 0000 0000 000000
2017-11-29 12:35:09,0.03,0.00,0.00,12.15,14.28,17.66,14.64,47.55,1032.24,2082.00,3613.30,3171.65,3643.99,599.86,628.05,0.32,0000 0000 0000 0000 000000
2017-11-29 12:40:10,0.03,0.00,0.00,12.23,14.35,17.74,14.61,47.53,1032.21,2081.99,3612.36,3170.98,3643.13,599.60,627.57,0.38,0000 0000 0000 0000 000000
2017-11-29 12:45:12,0.03,0.00,0.00,12.29,14.43,17.80,14.58,47.42,1032.24,2081.81,3611.33,3170.16,3642.25,599.71,627.65,0.43,0000 0000 0000 0000 000000
2017-11-29 12:50:13,-0.01,0.00,0.00,12.36,14.51,17.88,14.69,47.46,1032.24,2081.11,3610.31,3169.45,3641.28,600.16,627.87,0.48,0000 0000 0000 0000 000000
2017-11-29 12:55:14,0.04,0.01,0.00,12.43,14.59,17.95,14.60,47.44,1032.24,2081.00,3609.32,3168.77,3640.41,600.17,627.73,0.53,0000 0000 0000 0000 000000
2017-11-29 13:00:16,0.03,0.01,0.00,12.50,14.66,18.01,14.74,47.34,1032.25,2080.94,3608.46,3168.03,3639.55,600.29,627.80,0.58,0000 0000 0000 0000 000000